This is the latest recevied weather packets stored in our database for station/object KD8TSA. If no packets are shown the sender has not sent any weather packets the latest 10 day(s).
| Time | Temp. | Humidity | Pressure | Rain* | Wind** | Luminosity | Snow |
|---|---|---|---|---|---|---|---|
| 1778258349 | 20° C | 56% | 1012.8 hPa | 0 mm | - | 714 W/m² | - |
| 1778258047 | 20° C | 58% | 1012.8 hPa | 0 mm | - | 688 W/m² | - |
| 1778257742 | 19.44° C | 56% | 1013.1 hPa | 0 mm | - | 686 W/m² | - |
| 1778257440 | 19.44° C | 60% | 1013.1 hPa | 0 mm | - | 737 W/m² | - |
| 1778257137 | 19.44° C | 55% | 1013.1 hPa | 0 mm | - | 401 W/m² | - |
| 1778256834 | 20° C | 55% | 1012.9 hPa | 0 mm | - | 539 W/m² | - |
| 1778256531 | 19.44° C | 54% | 1012.8 hPa | 0 mm | - | 809 W/m² | - |
| 1778256230 | 18.89° C | 56% | 1013.2 hPa | 0 mm | - | 566 W/m² | - |
| 1778255925 | 18.89° C | 54% | 1013.1 hPa | 0 mm | - | 746 W/m² | - |
| 1778255623 | 18.89° C | 55% | 1013.4 hPa | 0 mm | - | 765 W/m² | - |
| 1778255320 | 18.89° C | 59% | 1013.5 hPa | 0 mm | - | 770 W/m² | - |
| 1778255018 | 18.89° C | 58% | 1013.3 hPa | 0 mm | - | 858 W/m² | - |
| 1778254714 | 18.89° C | 57% | 1013.5 hPa | 0 mm | - | 602 W/m² | - |
| 1778254411 | 18.33° C | 58% | 1013.5 hPa | 0 mm | - | 661 W/m² | - |
| 1778254107 | 17.78° C | 57% | 1013.4 hPa | 0 mm | - | 794 W/m² | - |
| 1778253804 | 17.78° C | 57% | 1013.7 hPa | 0 mm | - | 782 W/m² | - |
| 1778253500 | 17.78° C | 58% | 1013.7 hPa | 0 mm | - | 786 W/m² | - |
| 1778253198 | 18.33° C | 59% | 1013.8 hPa | 0 mm | - | 778 W/m² | - |
| 1778252893 | 17.78° C | 59% | 1013.6 hPa | 0 mm | - | 799 W/m² | - |
| 1778252590 | 17.22° C | 61% | 1013.8 hPa | 0 mm | - | 794 W/m² | - |
| 1778252287 | 17.22° C | 58% | 1014 hPa | 0 mm | - | 789 W/m² | - |
| 1778251983 | 17.22° C | 58% | 1013.8 hPa | 0 mm | - | 738 W/m² | - |
| 1778251680 | 17.22° C | 61% | 1014 hPa | 0 mm | - | 747 W/m² | - |
| 1778251378 | 16.67° C | 59% | 1013.8 hPa | 0 mm | - | 720 W/m² | - |
| 1778251075 | 16.11° C | 62% | 1014 hPa | 0 mm | - | 588 W/m² | - |
* Rain latest hour (hover to see other rain measurements)
** Current wind speed in m/s (hover to see current wind gust speed)